SCP
0 0 0 0 0 0 0 0 0 0 0 0 0 0 0 0 0 0 0 0 0 0 0 0 0 0 0 0 0 0 0 0 0 0 0 0 0 0
0 0 0 0 0 0 0 0 0 0 0 0 0 0 0 0 0 0 0 0 0 0 0 0 0 0 0 0 0 0 0 0 0 0 0 0 0 0
0 0 0 0 0 0 0 0 0 0 0 0 0 0 0 0 0 0 0 0 0 0 0 0 0 0 0 0 0 0 0 -0 -0 -0 -0 -0 -0 -0
0 0 0 0 0 0 0 0 0 0 0 0 0 0 0 0 0 0 0 0 0 0 0 0 0 0 0 0 0 0 0 0 0 0 -0 -0 -0 -0
0 0 0 0 0 0 0 0 0 0 0 0 0 0 0 0 0 0 0 0 0 0 0 0 0 0 0 0 0 0 0 0 0 0 0 0 0 0
0 0 0 0 0 0 0 0 0 0 0 0 0 0 0 0 0 0 0 0 0 0 0 0 0 0 0 0 0 0 0 0 0 0 0 0 0 0
0 0 0 0 0 0 0 0 0 0 0 0 0 0 0 0 0 0 0 0 0 0 0 0 0 0 0 0 0 0 0 0 0 0 0 0 0 0
0 0 0 0 0 0 0 0 0 0 0 0 0 0 0 0 0 0 0 0 0 0 0 0 0 0 0 0 0 0 0 0 0 0 0 0 0 0
0 0 0 0 0 0 0 0 0 0 0 0 0 0 0 0 0 0 0 0 0 0 0 0 0 0 0 0 0 0 0 0 0 0 0 0 0 0
0 0 0 0 0 0 0 0 0 0 0 0 0 0 0 0 0 0 0 0 0 0 0 0 0 0 0 0 0 0 0 0 0 0 0 0 0 0
0 0 0 0 0 0 0 0 0 0 0 0 0 0 0 0 0 0 0 0 0 0 0 0 0 0 0 0 0 0 0 0 0 0 0 0 0 0
0 0 0 0 0 0 0 0 0 0 0 0 0 0 0 0 0 0 0 0 0 0 0 0 0 0 0 0 0 0 0 0 0 0 0 -0 -0 0
0 0 0 0 0 0 0 0 0 0 0 0 0 0 0 0 0 0 0 0 0 0 0 0 0 0 0 0 0 0 0 0 0 0 0 -0 -0 -0
0 0 0 0 0 0 0 0 0 0 0 0 0 0 0 0 0 0 0 0 0 0 0 0 0 0 0 0 0 0 0 0 0 0 0 -0 -0 -0
0 0 0 0 0 0 0 0 0 0 0 0 0 0 0 0 0 0 0 0 0 0 0 0 0 0 0 0 0 0 0 0 0 -0 0 0 0 0
0 0 0 0 0 0 0 0 0 0 0 0 0 0 0 0 0 0 0 0 0 0 0 0 0 0 0 0 0 0 0 0 0 0 0 0 0 0
0 0 0 0 0 0 0 0 0 0 0 0 0 0 0 0 0 0 0 0 0 0 0 0 0 0 0 0 0 0 0 0 0 0 0 0 0 0
0 0 0 0 0 0 0 0 0 0 0 0 0 0 0 0 0 0 0 0 0 0 0 0 0 0 0 0 0 0 0 0 0 0 0 0 0 0
0 0 0 0 0 0 0 0 0 0 0 0 0 0 0 0 0 0 0 0 0 0 0 0 0 0 0 0 0 -0 0 0 0 0 0 0 0 0
0 0 0 0 0 0 0 0 0 0 0 0 0 0 0 0 0 0 0 0 0 0 0 0 0 0 0 0 0 0 0 0 0 0 0 0 0 0
0 0 0 0 0 0 0 0 0 0 0 0 0 0 0 0 0 0 0 0 0 0 0 0 0 0 0 0 0 0 0 0 0 0 0 0 0 0
0 0 0 0 0 0 0 0 0 0 0 0 0 0 0 0 0 0 0 0 0 0 0 0 0 0 0 0 0 0 0 0 0 -0 -0 0 0 0
0 0 0 0 0 0 0 0 0 0 0 0 0 0 0 0 0 0 0 0 0 0 0 0 0 0 0 0 0 0 0 0 0 0 0 -0 0 0
Wind_Speed_500mb
109 104 101 93 86 82 73 67 63 50 58 58 55 55 55 53 49 43 35 28 25 26 29 32 33 32 28 22 23 28 29 29 29 29 30 32 35 39
112 110 106 101 96 90 84 78 74 68 52 57 60 57 59 57 54 46 39 31 28 32 35 37 36 35 33 32 33 31 31 31 30 31 33 35 37 40
120 117 112 108 104 100 94 88 84 78 71 64 58 56 58 60 57 50 43 36 32 37 37 38 37 36 35 31 28 27 27 28 30 33 36 39 43 46
126 121 119 115 112 108 103 99 93 86 78 77 66 66 66 63 61 55 49 41 37 38 37 36 34 33 30 29 25 24 22 27 30 31 34 40 47 51
127 128 124 122 118 118 113 108 101 95 89 81 78 70 71 70 64 58 52 45 40 39 36 37 33 31 29 28 28 26 26 27 28 30 33 38 44 51
121 131 129 127 125 124 120 115 108 103 97 90 85 83 75 70 65 60 56 47 41 41 39 39 36 34 31 29 27 24 24 27 28 27 31 37 43 49
113 122 131 130 131 126 126 122 116 109 104 99 94 92 86 80 74 64 58 51 45 47 44 41 39 41 38 32 27 25 25 25 24 26 29 34 40 47
114 118 123 128 130 127 127 120 120 113 111 108 101 99 94 83 73 67 60 54 47 51 48 41 47 45 41 32 27 24 23 23 24 28 36 43 51 59
107 114 119 124 124 126 125 120 121 113 104 105 108 100 92 83 75 71 63 56 49 47 48 44 46 43 40 32 26 26 23 29 31 38 44 49 57 64
95 103 115 124 125 121 123 125 127 119 111 109 105 91 79 75 73 66 59 53 51 48 46 49 44 45 41 42 31 29 27 34 37 44 49 55 62 68
90 95 107 119 121 115 113 124 127 123 114 110 97 89 84 81 74 68 59 54 46 49 47 48 45 43 49 49 34 30 44 42 45 49 52 57 61 70
92 94 98 109 110 108 99 115 124 127 120 110 98 90 84 84 76 68 62 52 45 43 43 43 36 37 32 39 33 41 45 55 58 61 62 60 63 73
93 97 104 102 96 92 88 104 110 116 113 103 95 89 86 82 77 70 58 51 56 52 39 40 42 39 39 46 48 47 53 57 63 66 64 62 70 71
89 97 100 96 92 92 86 96 96 93 106 103 100 96 88 80 73 59 54 62 55 50 43 43 49 43 48 59 52 47 58 68 61 62 61 68 74 77
86 97 100 86 71 78 87 102 89 100 107 108 104 99 87 76 67 59 63 60 55 49 39 42 48 44 52 60 65 64 67 69 59 66 74 73 80 82
81 94 90 82 69 72 82 98 92 107 103 102 96 87 83 72 66 66 61 54 51 44 44 42 43 46 53 57 60 69 65 70 75 77 86 92 92 92
71 85 77 67 56 80 86 97 95 87 90 89 89 84 73 72 67 59 55 52 47 44 41 40 39 43 49 54 65 65 67 69 71 80 92 104 102 98
72 85 80 75 69 86 85 87 92 91 86 83 76 78 78 72 65 58 54 50 48 42 39 35 34 39 45 53 54 59 67 69 72 87 84 94 112 108
84 87 80 78 74 79 83 92 95 86 80 78 82 79 75 66 61 56 50 47 40 36 33 31 32 33 37 53 59 55 52 69 83 93 92 89 88 115
89 84 79 75 76 85 86 89 86 88 82 81 77 73 67 64 57 52 47 40 34 31 30 29 30 28 32 44 61 82 68 72 72 91 101 102 107 111
77 76 75 75 78 85 89 91 94 90 85 79 72 71 64 54 50 45 39 32 28 26 26 27 26 33 43 49 62 81 86 64 67 76 92 93 107 123
69 72 70 75 72 76 84 86 85 84 77 71 67 59 51 48 41 38 34 29 25 26 28 30 29 33 35 40 61 83 98 101 78 83 73 74 87 105
65 73 74 60 58 69 71 75 78 75 71 64 58 51 48 41 36 31 27 23 25 27 29 31 31 30 36 43 61 78 89 105 115 111 89 69 76 88
Wind_Direction_500mb
234 234 235 234 235 236 236 235 233 230 229 229 230 230 227 230 228 233 244 253 264 276 282 283 285 286 290 291 293 295 302 308 308 310 310 310 312 312
236 235 235 235 234 234 233 233 232 233 237 235 234 234 230 231 228 238 246 252 263 273 281 288 290 290 288 289 294 302 309 309 309 312 314 314 314 314
238 236 236 235 235 234 233 232 231 231 233 237 234 233 232 231 233 242 247 251 259 268 278 283 287 288 288 290 296 306 307 310 311 313 317 319 318 315
240 238 237 235 235 235 234 233 231 231 232 237 237 233 231 232 237 241 243 248 255 262 272 280 284 281 281 287 294 299 306 305 306 311 317 317 321 321
245 243 239 237 236 235 234 233 231 229 227 231 236 236 235 235 238 240 245 247 253 262 271 275 274 273 281 283 292 297 301 305 306 311 315 316 315 314
249 247 245 242 240 238 236 235 232 231 227 225 228 233 235 236 237 238 245 250 256 264 271 276 273 272 276 278 285 289 289 292 298 310 316 316 316 313
253 250 247 245 243 242 240 237 234 231 231 226 221 226 229 231 233 237 242 250 256 263 266 270 266 270 269 271 275 276 284 291 300 306 311 313 314 313
255 253 252 248 246 244 244 243 242 237 232 232 228 226 229 232 235 237 238 245 254 258 260 258 264 265 268 268 268 266 269 275 297 315 321 325 323 321
258 255 253 250 248 245 243 243 242 240 240 243 238 235 231 232 234 234 235 242 248 257 266 262 272 273 274 270 268 267 275 305 314 321 322 322 316 313
259 257 255 252 249 244 240 240 238 236 234 235 236 239 238 236 233 232 235 239 242 249 262 271 269 279 275 281 279 260 286 307 315 319 318 315 313 313
257 257 251 251 250 246 242 237 235 234 231 233 231 232 232 232 230 228 226 232 240 250 256 263 274 276 282 286 272 246 298 305 308 311 314 314 314 313
254 253 253 253 249 248 234 235 233 233 226 223 223 224 226 230 230 228 225 224 233 247 254 253 266 284 297 286 254 286 296 303 313 316 317 319 319 317
249 252 251 247 240 239 225 237 241 235 227 224 222 219 218 217 220 222 225 235 238 239 244 259 270 276 274 279 283 285 297 303 314 313 315 319 322 321
246 250 253 251 247 242 223 237 234 221 225 218 216 216 214 213 216 220 231 239 237 241 246 253 264 271 273 279 280 293 298 304 310 313 313 319 319 319
249 248 252 254 252 241 227 222 218 210 219 215 214 214 215 216 214 219 229 229 232 237 242 254 263 267 269 275 280 292 303 306 308 317 316 317 320 320
242 246 246 244 246 235 215 212 203 208 214 214 213 212 210 207 213 218 219 227 232 239 244 248 255 263 271 276 283 292 304 301 311 316 319 319 320 320
239 234 226 227 223 213 207 203 200 205 208 206 205 202 204 210 208 211 217 223 235 240 243 245 252 262 272 279 286 297 304 305 309 317 319 316 316 318
229 222 218 224 214 203 197 195 197 205 207 203 203 210 210 205 205 208 216 223 230 237 245 253 262 274 281 287 290 303 304 308 312 315 312 311 314 315
222 221 214 216 204 198 195 199 194 206 205 208 207 205 203 201 201 210 215 220 229 241 254 264 274 283 288 290 298 308 309 309 312 313 316 309 298 314
216 215 210 212 202 195 200 203 203 203 207 205 203 203 201 202 202 204 213 223 233 247 259 271 277 275 280 292 297 303 308 312 314 314 313 311 307 307
211 209 209 204 208 206 207 208 212 206 204 205 202 202 200 198 199 206 214 227 243 258 272 279 278 280 295 301 299 308 312 303 304 300 305 295 301 311
207 202 201 201 206 213 211 211 209 204 204 202 200 197 193 195 201 209 217 229 254 269 280 287 287 294 296 294 300 311 312 313 309 309 291 284 284 288
206 202 202 207 215 215 215 214 208 205 204 200 195 188 194 198 204 212 223 243 258 276 290 294 293 296 296 297 303 308 309 316 320 315 304 297 290 288
Wind_Speed_850mb
109 104 101 93 86 82 73 67 63 50 58 58 55 55 55 53 49 43 35 28 25 26 29 32 33 32 28 22 23 28 29 29 29 29 30 32 35 39
112 110 106 101 96 90 84 78 74 68 52 57 60 57 59 57 54 46 39 31 28 32 35 37 36 35 33 32 33 31 31 31 30 31 33 35 37 40
120 117 112 108 104 100 94 88 84 78 71 64 58 56 58 60 57 50 43 36 32 37 37 38 37 36 35 31 28 27 27 28 30 33 36 39 43 46
126 121 119 115 112 108 103 99 93 86 78 77 66 66 66 63 61 55 49 41 37 38 37 36 34 33 30 29 25 24 22 27 30 31 34 40 47 51
127 128 124 122 118 118 113 108 101 95 89 81 78 70 71 70 64 58 52 45 40 39 36 37 33 31 29 28 28 26 26 27 28 30 33 38 44 51
121 131 129 127 125 124 120 115 108 103 97 90 85 83 75 70 65 60 56 47 41 41 39 39 36 34 31 29 27 24 24 27 28 27 31 37 43 49
113 122 131 130 131 126 126 122 116 109 104 99 94 92 86 80 74 64 58 51 45 47 44 41 39 41 38 32 27 25 25 25 24 26 29 34 40 47
114 118 123 128 130 127 127 120 120 113 111 108 101 99 94 83 73 67 60 54 47 51 48 41 47 45 41 32 27 24 23 23 24 28 36 43 51 59
107 114 119 124 124 126 125 120 121 113 104 105 108 100 92 83 75 71 63 56 49 47 48 44 46 43 40 32 26 26 23 29 31 38 44 49 57 64
95 103 115 124 125 121 123 125 127 119 111 109 105 91 79 75 73 66 59 53 51 48 46 49 44 45 41 42 31 29 27 34 37 44 49 55 62 68
90 95 107 119 121 115 113 124 127 123 114 110 97 89 84 81 74 68 59 54 46 49 47 48 45 43 49 49 34 30 44 42 45 49 52 57 61 70
92 94 98 109 110 108 99 115 124 127 120 110 98 90 84 84 76 68 62 52 45 43 43 43 36 37 32 39 33 41 45 55 58 61 62 60 63 73
93 97 104 102 96 92 88 104 110 116 113 103 95 89 86 82 77 70 58 51 56 52 39 40 42 39 39 46 48 47 53 57 63 66 64 62 70 71
89 97 100 96 92 92 86 96 96 93 106 103 100 96 88 80 73 59 54 62 55 50 43 43 49 43 48 59 52 47 58 68 61 62 61 68 74 77
86 97 100 86 71 78 87 102 89 100 107 108 104 99 87 76 67 59 63 60 55 49 39 42 48 44 52 60 65 64 67 69 59 66 74 73 80 82
81 94 90 82 69 72 82 98 92 107 103 102 96 87 83 72 66 66 61 54 51 44 44 42 43 46 53 57 60 69 65 70 75 77 86 92 92 92
71 85 77 67 56 80 86 97 95 87 90 89 89 84 73 72 67 59 55 52 47 44 41 40 39 43 49 54 65 65 67 69 71 80 92 104 102 98
72 85 80 75 69 86 85 87 92 91 86 83 76 78 78 72 65 58 54 50 48 42 39 35 34 39 45 53 54 59 67 69 72 87 84 94 112 108
84 87 80 78 74 79 83 92 95 86 80 78 82 79 75 66 61 56 50 47 40 36 33 31 32 33 37 53 59 55 52 69 83 93 92 89 88 115
89 84 79 75 76 85 86 89 86 88 82 81 77 73 67 64 57 52 47 40 34 31 30 29 30 28 32 44 61 82 68 72 72 91 101 102 107 111
77 76 75 75 78 85 89 91 94 90 85 79 72 71 64 54 50 45 39 32 28 26 26 27 26 33 43 49 62 81 86 64 67 76 92 93 107 123
69 72 70 75 72 76 84 86 85 84 77 71 67 59 51 48 41 38 34 29 25 26 28 30 29 33 35 40 61 83 98 101 78 83 73 74 87 105
65 73 74 60 58 69 71 75 78 75 71 64 58 51 48 41 36 31 27 23 25 27 29 31 31 30 36 43 61 78 89 105 115 111 89 69 76 88
Wind_Direction_850mb
234 234 235 234 235 236 236 235 233 230 229 229 230 230 227 230 228 233 244 253 264 276 282 283 285 286 290 291 293 295 302 308 308 310 310 310 312 312
236 235 235 235 234 234 233 233 232 233 237 235 234 234 230 231 228 238 246 252 263 273 281 288 290 290 288 289 294 302 309 309 309 312 314 314 314 314
238 236 236 235 235 234 233 232 231 231 233 237 234 233 232 231 233 242 247 251 259 268 278 283 287 288 288 290 296 306 307 310 311 313 317 319 318 315
240 238 237 235 235 235 234 233 231 231 232 237 237 233 231 232 237 241 243 248 255 262 272 280 284 281 281 287 294 299 306 305 306 311 317 317 321 321
245 243 239 237 236 235 234 233 231 229 227 231 236 236 235 235 238 240 245 247 253 262 271 275 274 273 281 283 292 297 301 305 306 311 315 316 315 314
249 247 245 242 240 238 236 235 232 231 227 225 228 233 235 236 237 238 245 250 256 264 271 276 273 272 276 278 285 289 289 292 298 310 316 316 316 313
253 250 247 245 243 242 240 237 234 231 231 226 221 226 229 231 233 237 242 250 256 263 266 270 266 270 269 271 275 276 284 291 300 306 311 313 314 313
255 253 252 248 246 244 244 243 242 237 232 232 228 226 229 232 235 237 238 245 254 258 260 258 264 265 268 268 268 266 269 275 297 315 321 325 323 321
258 255 253 250 248 245 243 243 242 240 240 243 238 235 231 232 234 234 235 242 248 257 266 262 272 273 274 270 268 267 275 305 314 321 322 322 316 313
259 257 255 252 249 244 240 240 238 236 234 235 236 239 238 236 233 232 235 239 242 249 262 271 269 279 275 281 279 260 286 307 315 319 318 315 313 313
257 257 251 251 250 246 242 237 235 234 231 233 231 232 232 232 230 228 226 232 240 250 256 263 274 276 282 286 272 246 298 305 308 311 314 314 314 313
254 253 253 253 249 248 234 235 233 233 226 223 223 224 226 230 230 228 225 224 233 247 254 253 266 284 297 286 254 286 296 303 313 316 317 319 319 317
249 252 251 247 240 239 225 237 241 235 227 224 222 219 218 217 220 222 225 235 238 239 244 259 270 276 274 279 283 285 297 303 314 313 315 319 322 321
246 250 253 251 247 242 223 237 234 221 225 218 216 216 214 213 216 220 231 239 237 241 246 253 264 271 273 279 280 293 298 304 310 313 313 319 319 319
249 248 252 254 252 241 227 222 218 210 219 215 214 214 215 216 214 219 229 229 232 237 242 254 263 267 269 275 280 292 303 306 308 317 316 317 320 320
242 246 246 244 246 235 215 212 203 208 214 214 213 212 210 207 213 218 219 227 232 239 244 248 255 263 271 276 283 292 304 301 311 316 319 319 320 320
239 234 226 227 223 213 207 203 200 205 208 206 205 202 204 210 208 211 217 223 235 240 243 245 252 262 272 279 286 297 304 305 309 317 319 316 316 318
229 222 218 224 214 203 197 195 197 205 207 203 203 210 210 205 205 208 216 223 230 237 245 253 262 274 281 287 290 303 304 308 312 315 312 311 314 315
222 221 214 216 204 198 195 199 194 206 205 208 207 205 203 201 201 210 215 220 229 241 254 264 274 283 288 290 298 308 309 309 312 313 316 309 298 314
216 215 210 212 202 195 200 203 203 203 207 205 203 203 201 202 202 204 213 223 233 247 259 271 277 275 280 292 297 303 308 312 314 314 313 311 307 307
211 209 209 204 208 206 207 208 212 206 204 205 202 202 200 198 199 206 214 227 243 258 272 279 278 280 295 301 299 308 312 303 304 300 305 295 301 311
207 202 201 201 206 213 211 211 209 204 204 202 200 197 193 195 201 209 217 229 254 269 280 287 287 294 296 294 300 311 312 313 309 309 291 284 284 288
206 202 202 207 215 215 215 214 208 205 204 200 195 188 194 198 204 212 223 243 258 276 290 294 293 296 296 297 303 308 309 316 320 315 304 297 290 288